Location: Góry Miechowskie
(50.3599°N, 20.1803°E)
Time: 20:56:31
(UTC+00:00)

A-11 Canister half - Pass Details

Date: 14 September 2024
Orbit: 1524 x 1683 km, 47.3° (Epoch: 13 October)

Event Time Altitude Azimuth Distance (km) Brightness Sun altitude
Rises 19:18:19 0° 289° (WNW) 4,845 12.9 -22.2°
Reaches altitude 10° 19:21:53 10° 279° (W) 3,878 12.0 -22.6°
Maximum altitude 19:30:04 31° 223° (SW) 2,633 10.2 -23.7°
Enters shadow 19:35:36 19° 179° (S) 3,278 10.3 -24.4°
